Dumas, TX

9:14 PM CDT on June 28, 2017 (GMT -0500)
Moore County

Weather History for KDUX - September, 2014

Change the Weather History Date:

Tuesday, September 2, 2014

  Actual Average (KDHT) Record (KDHT)
Temperature  
Mean Temperature 78 °F -  
Max Temperature 90 °F 85 °F 99 °F (2000)
Min Temperature 65 °F 57 °F 47 °F (1972)
Cooling Degree Days 12    
Growing Degree Days 28 (Base 50)    
Moisture  
Dew Point 64 °F    
Average Humidity 72    
Maximum Humidity 98    
Minimum Humidity 39    
Precipitation  
Precipitation 0.00 in - - ()
Sea Level Pressure  
Sea Level Pressure 29.99 in    
Wind  
Wind Speed 9 mph (ENE)    
Max Wind Speed 13 mph    
Max Gust Speed 18 mph    
Visibility 8 miles    
Events Fog    
Averages and records for this station are not official NWS values.
T = Trace of Precipitation, MM = Missing Value Source: NWS Daily Summary

Daily Weather History Graph

Daily Weather History Graph

Search for Another Location

Airport or City:

Trip Planner

Search our weather history database for the weather conditions in past years. The results will help you decide how hot, cold, wet, or windy it might be!

Date:

Astronomy

Sep. 02, 2014 Rise Set
Actual Time 7:20 AM CDT 8:13 PM CDT
Civil Twilight 6:54 AM CDT 8:40 PM CDT
Nautical Twilight 6:23 AM CDT 9:10 PM CDT
Astronomical Twilight 5:51 AM CDT 9:42 PM CDT
Moon 2:53 PM CDT (9/2) 12:31 AM CDT (9/2)
Length of Visible Light 13h 45m
Length of Day
12h 53m
First Quarter, 53% of the Moon is Illuminated
Sep 2
First Quarter
Sep 8
Full
Sep 15
Last Quarter
Sep 24
New
Oct 1
First Quarter

Hourly Weather History & Observations

Time (CDT) Temp. Heat Index Dew Point Humidity Pressure Visibility Wind Dir Wind Speed Gust Speed Precip Events Conditions
12:15 AM 69.4 °F - 63.1 °F 80% 29.93 in 10.0 mi ESE 6.9 mph - N/A   Clear
12:35 AM 69.4 °F - 63.5 °F 81% 29.93 in 10.0 mi East 6.9 mph - N/A   Clear
12:55 AM 68.9 °F - 62.8 °F 81% 29.95 in 10.0 mi East 8.1 mph - N/A   Clear
1:15 AM 68.9 °F - 63.5 °F 83% 29.95 in 10.0 mi East 9.2 mph - N/A   Clear
1:35 AM 68.9 °F - 63.5 °F 83% 29.95 in 10.0 mi East 10.4 mph - N/A   Clear
1:55 AM 68.4 °F - 63.7 °F 85% 29.95 in 10.0 mi East 10.4 mph - N/A   Clear
2:15 AM 68.0 °F - 64.0 °F 87% 29.95 in 10.0 mi East 10.4 mph - N/A   Clear
2:35 AM 67.1 °F - 63.9 °F 89% 29.95 in 10.0 mi ENE 10.4 mph - N/A   Clear
2:55 AM 66.4 °F - 64.4 °F 93% 29.95 in 10.0 mi NE 5.8 mph - N/A   Scattered Clouds
3:15 AM 66.0 °F - 64.0 °F 93% 29.95 in 7.0 mi NE 5.8 mph - N/A   Overcast
3:35 AM 66.7 °F - 65.3 °F 95% 29.95 in 5.0 mi NE 10.4 mph - N/A   Overcast
3:55 AM 67.1 °F - 65.3 °F 94% 29.95 in 5.0 mi NE 11.5 mph - N/A   Overcast
4:15 AM 67.1 °F - 65.3 °F 94% 29.95 in 7.0 mi NNE 11.5 mph - N/A   Overcast
4:35 AM 67.3 °F - 65.3 °F 93% 29.97 in 7.0 mi NNE 10.4 mph - N/A   Overcast
4:55 AM 67.1 °F - 64.9 °F 93% 29.97 in 7.0 mi NNE 12.7 mph - N/A   Overcast
5:15 AM 66.7 °F - 64.8 °F 93% 29.97 in 5.0 mi NNE 11.5 mph - N/A   Overcast
5:35 AM 66.7 °F - 64.9 °F 94% 29.98 in 5.0 mi North 11.5 mph - N/A   Overcast
5:55 AM 66.4 °F - 64.8 °F 95% 29.98 in 5.0 mi North 9.2 mph - N/A   Overcast
6:15 AM 66.4 °F - 64.8 °F 95% 29.99 in 4.0 mi North 9.2 mph - N/A   Overcast
6:35 AM 66.4 °F - 64.9 °F 95% 30.00 in 4.0 mi North 9.2 mph - N/A   Overcast
6:55 AM 66.2 °F - 64.9 °F 96% 30.01 in 3.0 mi North 8.1 mph - N/A   Overcast
7:15 AM 65.8 °F - 64.6 °F 96% 30.02 in 4.0 mi North 8.1 mph - N/A   Overcast
7:35 AM 66.2 °F - 64.6 °F 94% 30.02 in 5.0 mi NNE 6.9 mph - N/A   Overcast
7:55 AM 65.8 °F - 64.6 °F 96% 30.03 in 2.0 mi NNE 11.5 mph - N/A   Overcast
8:15 AM 65.7 °F - 64.6 °F 96% 30.04 in 1.0 mi NE 9.2 mph - N/A   Overcast
8:35 AM 65.5 °F - 64.6 °F 97% 30.05 in 0.8 mi NE 8.1 mph - N/A   Overcast
8:55 AM 65.5 °F - 64.8 °F 98% 30.05 in 0.5 mi NE 6.9 mph - N/A Fog Fog
9:15 AM 66.2 °F - 64.9 °F 96% 30.06 in 4.0 mi NE 8.1 mph - N/A   Overcast
9:35 AM 66.4 °F - 64.8 °F 95% 30.06 in 4.0 mi NNE 9.2 mph - N/A   Overcast
9:55 AM 66.6 °F - 64.8 °F 94% 30.07 in 4.0 mi NE 9.2 mph - N/A   Overcast
10:15 AM 67.1 °F - 64.9 °F 93% 30.07 in 5.0 mi NE 10.4 mph - N/A   Overcast
10:35 AM 67.5 °F - 64.9 °F 92% 30.06 in 7.0 mi NNE 10.4 mph - N/A   Overcast
10:55 AM 68.4 °F - 64.9 °F 89% 30.07 in 7.0 mi NNE 9.2 mph - N/A   Overcast
11:15 AM 69.8 °F - 64.6 °F 83% 30.07 in 10.0 mi NE 8.1 mph - N/A   Overcast
11:35 AM 71.6 °F - 64.6 °F 78% 30.07 in 10.0 mi NE 6.9 mph - N/A   Overcast
11:55 AM 72.9 °F - 64.8 °F 76% 30.07 in 10.0 mi NNE 10.4 mph - N/A   Mostly Cloudy
12:15 PM 74.3 °F - 64.8 °F 72% 30.07 in 10.0 mi NNE 8.1 mph - N/A   Mostly Cloudy
12:35 PM 76.6 °F - 65.3 °F 68% 30.07 in 10.0 mi NNE 6.9 mph - N/A   Mostly Cloudy
12:55 PM 77.7 °F - 65.3 °F 65% 30.06 in 10.0 mi NE 9.2 mph - N/A   Mostly Cloudy
1:15 PM 78.1 °F - 65.3 °F 65% 30.06 in 10.0 mi ENE 9.2 mph - N/A   Scattered Clouds
1:35 PM 80.4 °F 82.3 °F 65.3 °F 60% 30.05 in 10.0 mi East 9.2 mph - N/A   Scattered Clouds
1:55 PM 82.9 °F 85.0 °F 66.0 °F 56% 30.05 in 10.0 mi ENE 9.2 mph - N/A   Mostly Cloudy
2:15 PM 82.8 °F 84.7 °F 65.7 °F 56% 30.04 in 10.0 mi NE 8.1 mph 17.3 mph N/A   Scattered Clouds
2:35 PM 83.3 °F 85.7 °F 66.4 °F 57% 30.03 in 10.0 mi NE 9.2 mph - N/A   Scattered Clouds
2:55 PM 84.6 °F 86.8 °F 66.0 °F 54% 30.03 in 10.0 mi NNE 10.4 mph 17.3 mph N/A   Scattered Clouds
3:15 PM 86.4 °F 88.7 °F 66.6 °F 51% 30.02 in 10.0 mi ENE 11.5 mph 16.1 mph N/A   Scattered Clouds
3:35 PM 87.1 °F 89.2 °F 65.8 °F 49% 30.01 in 10.0 mi ENE 9.2 mph 16.1 mph N/A   Scattered Clouds
3:55 PM 87.4 °F 89.5 °F 65.5 °F 48% 30.01 in 10.0 mi East 9.2 mph - N/A   Clear
4:15 PM 89.1 °F 91.0 °F 65.3 °F 45% 30.00 in 10.0 mi East 11.5 mph 18.4 mph N/A   Clear
4:35 PM 88.9 °F 90.7 °F 65.3 °F 45% 29.99 in 10.0 mi East 5.8 mph - N/A   Clear
4:55 PM 90.3 °F 92.2 °F 64.8 °F 43% 29.98 in 10.0 mi East 6.9 mph - N/A   Clear
5:15 PM 89.6 °F 90.8 °F 63.7 °F 42% 29.97 in 10.0 mi ESE 8.1 mph - N/A   Clear
5:55 PM 90.0 °F 91.0 °F 63.3 °F 41% 29.96 in 10.0 mi East 9.2 mph - N/A   Clear
6:15 PM 90.5 °F 91.4 °F 62.8 °F 40% 29.95 in 10.0 mi ESE 5.8 mph - N/A   Clear
6:35 PM 90.5 °F 91.1 °F 62.1 °F 39% 29.95 in 10.0 mi ESE 6.9 mph - N/A   Clear
6:55 PM 90.1 °F 90.6 °F 62.1 °F 39% 29.94 in 10.0 mi ENE 4.6 mph - N/A   Clear
7:15 PM 90.5 °F 91.1 °F 62.6 °F 39% 29.93 in 10.0 mi East 4.6 mph - N/A   Clear
7:35 PM 88.0 °F 88.4 °F 62.1 °F 42% 29.93 in 10.0 mi ESE 4.6 mph - N/A   Clear
7:55 PM 85.8 °F 86.3 °F 62.1 °F 45% 29.94 in 10.0 mi ENE 4.6 mph - N/A   Clear
8:15 PM 82.6 °F 83.1 °F 60.8 °F 48% 29.95 in 10.0 mi ENE 3.5 mph - N/A   Clear
8:35 PM 81.5 °F 82.0 °F 59.9 °F 48% 29.95 in 10.0 mi NE 4.6 mph - N/A   Clear
8:55 PM 79.3 °F - 61.9 °F 55% 29.95 in 10.0 mi ENE 6.9 mph - N/A   Clear
9:15 PM 76.1 °F - 63.9 °F 66% 29.96 in 10.0 mi East 6.9 mph - N/A   Clear
9:35 PM 77.0 °F - 60.8 °F 57% 29.96 in 10.0 mi SE 9.2 mph - N/A   Clear
9:55 PM 77.5 °F - 61.0 °F 57% 29.96 in 10.0 mi SE 6.9 mph - N/A   Clear
10:15 PM 75.4 °F - 61.9 °F 63% 29.96 in 10.0 mi ESE 8.1 mph - N/A   Clear
10:35 PM 76.1 °F - 62.6 °F 63% 29.96 in 10.0 mi SE 9.2 mph - N/A   Clear
10:55 PM 76.1 °F - 62.8 °F 63% 29.97 in 10.0 mi SE 8.1 mph - N/A   Clear
11:15 PM 76.1 °F - 63.5 °F 65% 29.97 in 10.0 mi SSE 11.5 mph - N/A   Clear
11:35 PM 76.6 °F - 63.5 °F 64% 29.97 in 10.0 mi SSE 9.2 mph 16.1 mph N/A   Clear
11:55 PM 75.7 °F - 63.1 °F 65% 29.97 in 10.0 mi SSE 9.2 mph - N/A   Clear